Preview of NWS' New Version of Forecast
This preview is not operational and should not be used for support decisions.

Regional Weather Roundup (RWR)

Issued by National Weather Service (NWS)

                            
000
ASCA42 TJSJ 190110
RWRPR 
PUERTO RICO/U.S. VIRGIN ISLANDS HOURLY WEATHER ROUNDUP
NATIONAL WEATHER SERVICE SAN JUAN PR
900 PM AST MON MAR 18 2019

PRZ001>002-007>008-010-190200-
PUERTO RICO
  
CITY           SKY/WX    TMP DP  RH WIND       PRES   REMARKS
SAN JUAN LMM   CLEAR     75  64  69 E6        30.04R                  
AGUADILLA      PTCLDY    75  68  78 SW5       30.03R                  
$$

VIZ001>002-190200-
U.S. VIRGIN ISLANDS
  
CITY           SKY/WX    TMP DP  RH WIND       PRES   REMARKS
CHARLOTTE AMA  CLEAR     75  64  69 E7        30.03R                  
CHRISTIANSTED  CLEAR     75  64  69 E8        30.04R                  
$$

HOURLY WEATHER ROUNDUP FOR THE NEWS MEDIA
  
CITY           SKY/WX    TMP DP  RH WIND       PRES   REMARKS
ORLANDO        CLOUDY    63  47  55 N14       30.14R                  
NEW YORK       MOCLDY    38  29  70 S10       30.34R WCI  31          
NEWARK         MOCLDY    42  11  28 NW5       30.32R                  
CHICAGO        FAIR      38  23  55 W5        30.34S WCI  34          
HARTFORD       FAIR      30  12  47 CALM      30.29R                  
BOSTON         FAIR      39   7  26 W8        30.29R WCI  33          
DALLAS         PTCLDY    67  33  28 SE6       30.23R                  
PHILADELPHIA   FAIR      44  20  38 NW5       30.34R                  
LOS ANGELES    MOSUNNY   66  48  52 W7        29.93S                  
WASHINGTON DC  FAIR      38  22  52 NW3       30.33R